Location: Saint-Restitut
(44.3351°N, 4.7915°E)
Time: 06:25:09
(UTC+00:00)

Cosmos 2219 Rocket - Pass Details

Date: 03 February 2023
Orbit: 826 x 848 km, 71.0° (Epoch: 26 March)

Event Time Altitude Azimuth Distance (km) Brightness Sun altitude
Rises 18:03:22 0° 171° (S) 3,349 5.3 -12.9°
Reaches altitude 10° 18:06:05 10° 159° (SSE) 2,421 4.5 -13.4°
Maximum altitude 18:10:41 27° 103° (ESE) 1,531 3.0 -14.2°
Enters shadow 18:13:00 21° 66° (ENE) 1,803 3.3 -14.6°
